ROMMA est une association bénévole à but non lucratif. Votre soutien est indispensable : ADHERER à ROMMA ou FAIRE un DON

Granges-lès-Beaumont - (26, Drôme)

Drôme des Collines (155 m)   Longitude: 04°58'E   Latitude: 45°03'N Station partenaire n°123
 

Détail journalier du     <<     >>

Température Precipitation Humidité Pression Vent Dir Rafale Dir. rafale Ensol.
Heure (°C) (mm) (%) (hPa) (km/h) (km/h) (min)
01:00 0.9093102005NE0
02:00 0.0093102100---0
03:00 -0.5094102100---0
04:00 -0.9094102100---0
05:00 -1.3094102100---0
06:00 -0.609510211---6O0
07:00 -0.2095102106O0
08:00 -1.0094102206NE0
09:00 -0.8095102300---0
10:00 1.10.295102400---0
11:00 2.6091102400---0
12:00 4.708610241ESE13ESE60
13:00 7.7078102405ESE60
14:00 8.007510241S10ONO60
15:00 8.607510233ONO10NO20
16:00 7.208210233E8E10
17:00 6.808210231E10E30
18:00 4.2091102400---0
19:00 3.009210241NNO6NNO0
20:00 2.309210255NO10NO0
21:00 1.509410251---8NNE0
22:00 0.909410251NNO6NNO0
23:00 0.0095102506N0
minuit 0.009510251---6N0

Graphique du 05-12-2019

 

Serveur OMMA